Hof Plauen, Germany

8:41 PM CEST on May 25, 2017 (GMT +0200)
Hof-Plauen

Weather History for EDQM - November, 2012

Change the Weather History Date:

Saturday, November 3, 2012

  Actual Average Record
Temperature  
Mean Temperature 45 °F -  
Max Temperature 51 °F 38 °F 59 °F (2014)
Min Temperature 39 °F 31 °F 26 °F (2006)
Degree Days  
Heating Degree Days 20    
Moisture  
Dew Point 40 °F    
Average Humidity 85    
Maximum Humidity 96    
Minimum Humidity 76    
Precipitation  
Precipitation 0.16 in - - ()
Sea Level Pressure  
Sea Level Pressure 29.63 in    
Wind  
Wind Speed 13 mph ()    
Max Wind Speed 24 mph    
Max Gust Speed 39 mph    
Visibility 6.5 miles    
Events Rain    
Averages and records for this station are not official NWS values.
T = Trace of Precipitation, MM = Missing Value Source: Averaged Metar Reports

Daily Weather History Graph

Daily Weather History Graph

Search for Another Location

Airport or City:

Trip Planner

Search our weather history database for the weather conditions in past years. The results will help you decide how hot, cold, wet, or windy it might be!

Date:

Astronomy

Nov. 03, 2012 Rise Set
Actual Time 7:06 AM CET 4:44 PM CET
Civil Twilight 6:32 AM CET 5:19 PM CET
Nautical Twilight 5:53 AM CET 5:57 PM CET
Astronomical Twilight 5:15 AM CET 6:35 PM CET
Moon 7:59 PM CET (11/3) 11:10 AM CET (11/3)
Length of Visible Light 10h 46m
Length of Day
9h 37m
Waning Gibbous, 82% of the Moon is Illuminated
Nov 3
Waning Gibbous
Nov 7
Last Quarter
Nov 13
New
Nov 20
First Quarter
Nov 28
Full

Hourly Weather History & Observations

Time (CET) Temp. Windchill Dew Point Humidity Pressure Visibility Wind Dir Wind Speed Gust Speed Precip Events Conditions
12:00 AM 43 °F - 41 °F 90% 29.57 in 22 mi SW 13.4 mph - - Rain Rain
12:20 AM 42.8 °F 34.5 °F 39.2 °F 87% 29.56 in 6.2 mi SW 18.4 mph - N/A   Overcast
12:50 AM 42.8 °F 35.4 °F 39.2 °F 87% 29.56 in 6.2 mi SSW 15.0 mph - N/A Rain Light Rain Showers
1:00 AM 43 °F - 41 °F 89% 29.59 in 37 mi SW 11.2 mph - - Rain Rain
1:20 AM 42.8 °F 34.8 °F 39.2 °F 87% 29.59 in 6.2 mi SW 17.3 mph - N/A   Overcast
1:50 AM 42.8 °F 34.5 °F 37.4 °F 81% 29.59 in 6.2 mi SW 18.4 mph - N/A   Overcast
2:00 AM 43 °F - 40 °F 84% 29.63 in 34 mi WSW 15.7 mph - - Rain Rain
2:20 AM 42.8 °F 35.4 °F 37.4 °F 81% 29.62 in 6.2 mi SW 15.0 mph - N/A   Mostly Cloudy
2:50 AM 42.8 °F 37.0 °F 37.4 °F 81% 29.62 in 6.2 mi WSW 10.4 mph - N/A Rain Rain Showers
3:00 AM 42 °F - 38 °F 81% 29.66 in 44 mi West 13.4 mph - - Rain Rain
3:20 AM 41.0 °F 35.2 °F 37.4 °F 87% 29.62 in 6.2 mi SW 9.2 mph - N/A Rain Light Rain Showers
3:50 AM 41.0 °F 32.8 °F 37.4 °F 87% 29.65 in 6.2 mi SW 16.1 mph - N/A   Scattered Clouds
4:20 AM 41.0 °F 33.1 °F 37.4 °F 87% 29.65 in 6.2 mi SW 15.0 mph - N/A   Partly Cloudy
4:50 AM 41.0 °F 33.1 °F 37.4 °F 87% 29.65 in 6.2 mi SW 15.0 mph - N/A   Scattered Clouds
5:00 AM 42 °F - 39 °F 85% 29.68 in 17 mi SW 13.4 mph - - Rain Rain
5:20 AM 41.0 °F 33.5 °F 37.4 °F 87% 29.65 in 6.2 mi SW 13.8 mph - N/A   Partly Cloudy
5:50 AM 41.0 °F 32.8 °F 37.4 °F 87% 29.65 in 6.2 mi SSW 16.1 mph - N/A   Partly Cloudy
6:00 AM 41 °F - 39 °F 90% 29.68 in 16 mi SSW 11.2 mph - - Rain Light Rain
6:20 AM 41.0 °F 32.2 °F 37.4 °F 87% 29.65 in 6.2 mi SSW 18.4 mph - N/A   Unknown
6:50 AM 41.0 °F 33.1 °F 35.6 °F 81% 29.65 in 6.2 mi SSW 15.0 mph - N/A Rain Light Rain Showers
7:20 AM 41.0 °F 32.2 °F 33.8 °F 76% 29.65 in 6.2 mi SSW 18.4 mph - N/A   Unknown
7:50 AM 41.0 °F 32.8 °F 33.8 °F 76% 29.65 in 6.2 mi SSW 16.1 mph - N/A   Unknown
8:00 AM 40 °F - 36 °F 80% 29.70 in 37 mi SSW 11.2 mph - - Rain Light Rain
8:20 AM 39.2 °F 30.5 °F 33.8 °F 81% 29.65 in 6.2 mi SSW 16.1 mph - N/A   Unknown
8:50 AM 39.2 °F 30.5 °F 35.6 °F 87% 29.68 in 6.2 mi SSW 16.1 mph - N/A Rain Light Rain Showers
9:00 AM 40 °F - 37 °F 85% 29.73 in 22 mi SSW 11.2 mph - - Rain Light Rain
9:20 AM 39.2 °F 31.2 °F 35.6 °F 87% 29.68 in 6.2 mi SSW 13.8 mph - N/A Rain Light Rain Showers
9:50 AM 39.2 °F 31.2 °F 35.6 °F 87% 29.68 in 3.7 mi SSW 13.8 mph - N/A Rain Light Rain
10:20 AM 41.0 °F 33.9 °F 37.4 °F 87% 29.68 in 5.0 mi South 12.7 mph - N/A Rain Light Rain
10:50 AM 39.2 °F 31.6 °F 35.6 °F 87% 29.65 in 5.6 mi South 12.7 mph - N/A Rain Rain
11:00 AM 40 °F - 38 °F 88% 29.71 in 11 mi South 11.2 mph - - Rain Rain
11:20 AM 41.0 °F 34.7 °F 37.4 °F 87% 29.65 in 6.2 mi South 10.4 mph - N/A Rain Light Rain
11:50 AM 41.0 °F 35.8 °F 37.4 °F 87% 29.65 in 3.1 mi SSE 8.1 mph - N/A Rain Light Rain
12:00 PM 40 °F - 39 °F 96% 29.68 in 14 mi South 8.9 mph - - Rain Light Rain
12:20 PM 41.0 °F 35.2 °F 37.4 °F 87% 29.62 in 6.2 mi SSE 9.2 mph - N/A   Light Drizzle
12:50 PM 42.8 °F 38.6 °F 39.2 °F 87% 29.62 in 6.2 mi South 6.9 mph - N/A Rain Light Rain Showers
1:00 PM 42 °F - 41 °F 94% 29.63 in 16 mi SSE 8.9 mph - - Rain Light Rain
1:20 PM 46.4 °F 41.1 °F 42.8 °F 87% 29.59 in 6.2 mi SSW 11.5 mph - N/A Rain Light Rain Showers
1:50 PM 46.4 °F 38.1 °F 42.8 °F 87% 29.56 in 6.2 mi SSW 24.2 mph - N/A   Scattered Clouds
2:00 PM 47 °F - 44 °F 84% 29.57 in 37 mi SSW 15.7 mph - - Rain Light Rain
2:20 PM 48.2 °F - 42.8 °F 82% 29.56 in 6.2 mi SSW 23.0 mph - N/A   Mostly Cloudy
2:50 PM 48.2 °F - 42.8 °F 82% 29.56 in 6.2 mi SSW 18.4 mph - N/A Rain Light Rain
3:00 PM 48 °F - 45 °F 84% 29.56 in 44 mi SSW 13.4 mph - - Rain Light Rain
3:20 PM 48.2 °F - 42.8 °F 82% 29.53 in 6.2 mi South 16.1 mph - N/A   Mostly Cloudy
3:50 PM 48.2 °F - 44.6 °F 87% 29.53 in 6.2 mi South 15.0 mph - N/A Rain Light Rain Showers
4:20 PM 50.0 °F - 42.8 °F 76% 29.53 in 6.2 mi South 17.3 mph 28.8 mph N/A Rain Light Rain Showers
4:40 PM 50.0 °F - 44.6 °F 82% 29.56 in 1.6 mi SSW 16.1 mph - N/A Rain Heavy Rain Showers
4:50 PM 50.0 °F - 44.6 °F 82% 29.59 in 2.5 mi West 18.4 mph - N/A Rain Heavy Rain Showers
5:00 PM 48 °F - 46 °F 90% 29.59 in 6 mi West 13.4 mph - - Rain Rain
5:20 PM 48.2 °F - 44.6 °F 87% 29.59 in 6.2 mi SSW 12.7 mph - N/A   Mostly Cloudy
5:50 PM 48.2 °F - 44.6 °F 87% 29.59 in 6.2 mi SW 15.0 mph - N/A Rain Rain Showers
6:00 PM 50 °F - 46 °F 82% 29.60 in 11 mi WSW 17.9 mph - - Rain Light Rain
6:20 PM 50.0 °F - 44.6 °F 82% 29.59 in 5.0 mi SW 17.3 mph 29.9 mph N/A Rain Rain Showers
6:50 PM 48.2 °F - 44.6 °F 87% 29.62 in 6.2 mi SW 13.8 mph - N/A Rain Rain
7:00 PM 48 °F - 46 °F 89% 29.62 in 6 mi WSW 11.2 mph - - Rain Rain
7:20 PM 48.2 °F - 44.6 °F 87% 29.62 in 6.2 mi SW 11.5 mph - N/A Rain Light Rain Showers
7:50 PM 44.6 °F 35.7 °F 41.0 °F 87% 29.65 in - West 24.2 mph 39.1 mph N/A Rain Heavy Rain Showers
8:00 PM 45 °F - 42 °F 86% 29.68 in 5 mi West 15.7 mph - - Rain Rain
8:20 PM 44.6 °F 37.8 °F 41.0 °F 87% 29.65 in 6.2 mi WSW 15.0 mph - N/A Rain Light Rain
8:50 PM 44.6 °F 37.4 °F 37.4 °F 76% 29.65 in 5.6 mi WSW 16.1 mph - N/A Rain Light Rain
9:00 PM 43 °F - 41 °F 88% 29.70 in 5 mi West 11.2 mph - - Rain Light Rain
9:20 PM 42.8 °F 37.5 °F 37.4 °F 81% 29.68 in 3.1 mi WSW 9.2 mph - N/A Rain Rain
9:50 PM 42.8 °F 38.6 °F 39.2 °F 87% 29.65 in 6.2 mi SSW 6.9 mph - N/A Rain Light Rain
10:20 PM 42.8 °F 37.5 °F 39.2 °F 87% 29.68 in 4.3 mi SW 9.2 mph - N/A Rain Rain
10:50 PM 42.8 °F 35.8 °F 37.4 °F 81% 29.71 in 5.6 mi WSW 13.8 mph - N/A Rain Rain
11:00 PM 42 °F - 40 °F 90% 29.73 in 4 mi WSW 8.9 mph - - Rain Rain
11:20 PM 41.0 °F 34.3 °F 37.4 °F 87% 29.71 in 6.2 mi SW 11.5 mph - N/A Rain Light Rain Showers
11:50 PM 41.0 °F 34.3 °F 37.4 °F 87% 29.68 in 6.2 mi SSW 11.5 mph - N/A Rain Rain Showers